User: anonymous   Login
Location: Unspecified
(0.0000°N, 0.0000°E)
Time: 06:10:47
(UTC+00:00)
Language:

COSMOS 2429 - Orbit

View from above orbital plane
View from above orbital plane
View from above satellite
View from above satellite

Ground track
Ground track

The orbit data is extracted from the following two-line orbital elements,

1 32052U 07038A   17296.37711100  .00000057  00000-0  43009-4 0  9997
2 32052  82.9842  13.3314 0039544  56.1096 304.3811 13.74894674507661
Epoch (UTC): 23 October 2017 09:03:02
Eccentricity: 0.0039544
inclination: 82.9842°
perigee height: 953 km
apogee height: 1011 km
right ascension of ascending node: 13.3314°
argument of perigee: 56.1096°
revolutions per day: 13.74894674
mean anomaly at epoch: 304.3811°
orbit number at epoch: 50766

The dashed part of the orbit path shows where the satellite is in the earth's shadow,  

DLR